Location: Shandelee
(41.8790°N, 74.8713°W)
Time: 04:18:10
(UTC+00:00)

USA 307 - Pass Details

Date: 29 October 2020
Orbit: 569 x 579 km, 54.0° (Epoch: 23 November)

Event Time Altitude Azimuth Distance (km) Brightness Sun altitude
Rises 23:27:37 0° 311° (NW) 2,787 7.1 -17.4°
Reaches altitude 10° 23:29:55 10° 315° (NW) 1,885 6.1 -17.8°
Maximum altitude 23:34:08 57° 34° (NE) 676 3.0 -18.6°
Enters shadow 23:35:05 45° 84° (E) 781 3.1 -18.8°
